TimeMDT,TemperatureF,Dew PointF,Humidity,Sea Level PressureIn,VisibilityMPH,Wind Direction,Wind SpeedMPH,Gust SpeedMPH,PrecipitationIn,Events,Conditions,WindDirDegrees,DateUTC
12:00 AM,54,35,37,,,WSW,15.0,,,,,240,2012-10-13 06:00:00
12:00 AM,53.8,35.4,50,-9999,-9999.0,WSW,15.0,-,N/A,,Unknown,240,2012-10-13 06:00:00
1:00 AM,52.7,35.4,52,-9999,-9999.0,WSW,11.5,-,N/A,,Unknown,250,2012-10-13 07:00:00
2:00 AM,53.1,36.0,52,-9999,-9999.0,WSW,11.5,-,N/A,,Unknown,250,2012-10-13 08:00:00
3:00 AM,52.5,36.0,53,-9999,-9999.0,SW,6.9,-,N/A,,Unknown,230,2012-10-13 09:00:00
4:00 AM,53.1,35.1,50,-9999,-9999.0,SW,18.4,-,N/A,,Unknown,230,2012-10-13 10:00:00
5:00 AM,52.9,35.2,51,-9999,-9999.0,SW,17.3,-,N/A,,Unknown,230,2012-10-13 11:00:00
6:00 AM,52,36,42,,,SW,16.1,,,,,230,2012-10-13 12:00:00
6:00 AM,52.0,35.8,54,-9999,-9999.0,SW,16.1,-,N/A,,Unknown,230,2012-10-13 12:00:00
7:00 AM,51.8,36.3,56,-9999,-9999.0,SW,15.0,-,N/A,,Unknown,220,2012-10-13 13:00:00
8:00 AM,53.4,37.6,55,-9999,-9999.0,WSW,15.0,-,N/A,,Unknown,240,2012-10-13 14:00:00
9:00 AM,54.0,37.4,54,-9999,-9999.0,WSW,17.3,-,N/A,,Unknown,250,2012-10-13 15:00:00
10:00 AM,55.8,37.8,51,-9999,-9999.0,WSW,17.3,-,N/A,,Unknown,250,2012-10-13 16:00:00
11:00 AM,61.2,36.0,39,-9999,-9999.0,West,25.3,-,N/A,,Unknown,260,2012-10-13 17:00:00
12:00 PM,64,35,22,,,West,28.8,,,,,270,2012-10-13 18:00:00
12:00 PM,63.5,34.9,34,-9999,-9999.0,West,28.8,-,N/A,,Unknown,270,2012-10-13 18:00:00
1:00 PM,64.8,34.3,32,-9999,-9999.0,West,27.6,-,N/A,,Unknown,270,2012-10-13 19:00:00
3:00 PM,64.2,34.7,33,-9999,-9999.0,West,31.1,-,N/A,,Unknown,270,2012-10-13 21:00:00
4:00 PM,64.8,34.2,32,-9999,-9999.0,West,28.8,-,N/A,,Unknown,280,2012-10-13 22:00:00
5:00 PM,62.4,34.0,35,-9999,-9999.0,West,29.9,-,N/A,,Unknown,270,2012-10-13 23:00:00
6:00 PM,61,36,27,,,West,27.6,,,,,260,2012-10-14 00:00:00
6:00 PM,60.8,36.0,40,-9999,-9999.0,West,27.6,-,N/A,,Unknown,260,2012-10-14 00:00:00
7:00 PM,59.4,31.5,35,-9999,-9999.0,West,19.6,-,N/A,,Unknown,260,2012-10-14 01:00:00
10:00 PM,53.8,35.8,51,-9999,-9999.0,WSW,16.1,-,N/A,,Unknown,240,2012-10-14 04:00:00
11:00 PM,54.5,37.6,53,-9999,-9999.0,WSW,21.9,-,N/A,,Unknown,250,2012-10-14 05:00:00